This is the latest recevied weather packets stored in our database for station/object K1KOF. If no packets are shown the sender has not sent any weather packets the latest 10 day(s).
| Time | Temp. | Humidity | Pressure | Rain* | Wind** | Luminosity | Snow |
|---|---|---|---|---|---|---|---|
| 1777495311 | 27.78° C | 70% | 1019.8 hPa | 0 mm | - | 502 W/m² | - |
| 1777495010 | 27.78° C | 70% | 1019.9 hPa | 0 mm | - | 472 W/m² | - |
| 1777494706 | 26.67° C | 72% | 1019.8 hPa | 0 mm | - | 551 W/m² | - |
| 1777494404 | 26.67° C | 73% | 1020 hPa | 0 mm | - | 166 W/m² | - |
| 1777494099 | 26.67° C | 71% | 1020.2 hPa | 0 mm | - | 240 W/m² | - |
| 1777493797 | 26.11° C | 73% | 1020.1 hPa | 0 mm | - | 372 W/m² | - |
| 1777493496 | 26.67° C | 73% | 1020.1 hPa | 0 mm | - | 219 W/m² | - |
| 1777493192 | 26.67° C | 71% | 1020.2 hPa | 0 mm | - | 186 W/m² | - |
| 1777492888 | 26.67° C | 73% | 1020.4 hPa | 0 mm | - | 246 W/m² | - |
| 1777492585 | 26.67° C | 71% | 1020.5 hPa | 0 mm | - | 247 W/m² | - |
| 1777492281 | 27.22° C | 70% | 1020.3 hPa | 0 mm | - | 214 W/m² | - |
| 1777491978 | 26.67° C | 71% | 1020.2 hPa | 0 mm | - | 253 W/m² | - |
| 1777491674 | 27.78° C | 69% | 1020.4 hPa | 0 mm | - | 681 W/m² | - |
| 1777491372 | 26.67° C | 71% | 1020.4 hPa | 0 mm | - | 494 W/m² | - |
| 1777491069 | 27.22° C | 70% | 1020.4 hPa | 0 mm | - | 661 W/m² | - |
| 1777490764 | 26.67° C | 72% | 1020.5 hPa | 0 mm | - | 607 W/m² | - |
| 1777490461 | 26.11° C | 73% | 1020.9 hPa | 0 mm | - | 498 W/m² | - |
| 1777490157 | 25.56° C | 75% | 1021.2 hPa | 0 mm | - | 373 W/m² | - |
| 1777489855 | 25.56° C | 75% | 1021.1 hPa | 0 mm | - | 290 W/m² | - |
| 1777489552 | 25° C | 75% | 1021.3 hPa | 0 mm | - | 226 W/m² | - |
| 1777489249 | 25° C | 76% | 1021.2 hPa | 0 mm | - | 193 W/m² | - |
| 1777488946 | 25° C | 75% | 1021.4 hPa | 0 mm | - | 126 W/m² | - |
| 1777488643 | 25.56° C | 75% | 1021.4 hPa | 0 mm | - | 236 W/m² | - |
| 1777488340 | 26.11° C | 74% | 1021.5 hPa | 0 mm | - | 296 W/m² | - |
| 1777488039 | 25.56° C | 73% | 1021.2 hPa | 0 mm | - | 285 W/m² | - |
* Rain latest hour (hover to see other rain measurements)
** Current wind speed in m/s (hover to see current wind gust speed)